Location: Unspecified
(33.9360°N, 83.4200°W)
Time: 01:52:20
(UTC-04:00)

Daily predictions for brighter satellites

Satellite Brightness Start Highest point End
(mag) Time Altitude Azimuth Time Altitude Azimuth Time Altitude Azimuth
Cosmos 2278 Rocket 4.5 04:06:56 17° NNE 04:06:56 17° NNE 04:08:12 10° NNE
ADEOS II 4.3 04:05:44 10° NNE 04:07:23 20° NE 04:07:23 20° NE
BREEZE-M DEB (TANK) 4.4 04:14:28 53° NNE 04:14:31 53° NE 04:29:24 10° ESE
Cosmos 1821 Rocket 4.3 04:45:52 59° ESE 04:46:18 60° E 04:52:19 10° NNE
Cosmos 2297 4.3 04:57:01 50° N 04:57:01 50° N 05:01:13 10° NNE
ARGOS Delta rocket 4.5 04:57:36 58° ESE 04:58:16 64° ENE 05:03:41 10° N
Cosmos 2082 Rocket 2.5 04:52:59 10° NNW 04:58:34 65° ENE 05:04:07 10° SSE
Cosmos 2369 Rocket 4.4 04:56:33 10° SSE 05:00:38 21° E 05:04:44 10° NE
Cosmos 1833 Rocket 4.1 05:04:30 26° SSE 05:04:30 26° SSE 05:06:49 10° SSE
Cosmos 1300 Rocket 4.2 05:11:27 10° N 05:15:40 53° E 05:17:15 34° SE
PSLV R/B 4.0 05:13:43 10° NNE 05:17:12 56° NNE 05:17:12 56° NNE
SEDSat Delta rocket 4.1 05:20:32 54° SSW 05:21:41 63° S 05:28:17 10° E
Okean 1 3.5 05:31:45 62° N 05:31:45 62° N 05:35:10 10° N
SL-24 R/B - RUBIN 2 3.6 05:30:12 55° NW 05:31:16 86° WSW 05:36:22 10° SSE
Cosmos 1666 3.6 05:29:09 10° N 05:32:51 47° E 05:36:31 10° SSE
USA 267 3.1 05:28:30 10° SE 05:35:03 85° SW 05:41:37 10° NW
Cosmos 2251 Rocket 3.4 05:36:11 55° SW 05:37:13 69° WNW 05:42:31 10° NNE
Meteor 1-28 Rocket 3.6 05:34:53 10° SSE 05:38:36 61° ENE 05:42:18 10° N
Lacrosse 5 rocket 3.4 05:38:13 10° N 05:41:12 23° NE 05:44:17 10° E
Aurora 2 Rocket 4.3 05:42:27 21° S 05:43:06 22° S 05:46:23 10° SE
CZ-4B R/B 2.7 05:40:57 10° NNE 05:44:48 89° E 05:46:07 41° SSW
MOS 1-B 4.3 05:43:58 10° NNE 05:49:49 86° ESE 05:55:37 10° SSW
ADEOS II 3.9 05:46:33 10° NNW 05:48:20 16° NW 05:48:20 16° NW
Cosmos 1605 Rocket 4.0 05:45:05 10° S 05:51:29 86° W 05:57:54 10° N
GPS 2-04 Rocket1 2.7 05:51:04 55° SSW 05:51:36 63° SSE 05:55:31 10° E
Cosmos 1975 Rocket 4.2 05:48:19 10° SSE 05:52:23 43° E 05:56:29 10° NNE
Okean O Rocket 2.6 05:49:56 10° NNE 05:54:11 47° E 05:58:27 10° S
Meteor 1-18 Rocket 4.4 05:55:18 24° SW 05:58:38 50° WNW 06:04:20 10° N
Cosmos 921 Rocket 4.1 06:03:41 25° SW 06:03:41 25° SW 06:05:48 10° SSW
Cosmos 1674 Rocket 4.3 06:04:14 31° WNW 06:04:14 31° WNW 06:08:12 10° NNW
CZ-4B R/B 3.8 05:59:07 10° NNE 06:04:19 55° E 06:09:29 10° S
CZ-4B DEB 4.4 05:59:53 10° NNE 06:05:22 75° ESE 06:10:48 10° S
Delta 2 Rocket 3.0 06:07:23 37° SW 06:08:28 58° SSE 06:11:46 10° E
Cosmos 2285 Rocket 4.4 06:06:22 22° SW 06:10:01 41° WNW 06:16:04 10° N
Meteor 1-31 Rocket 2.7 06:09:38 10° N 06:13:29 67° WNW 06:17:20 10° SSW
Meteor 2-4 Rocket 3.7 06:11:27 10° S 06:16:48 81° E 06:22:18 10° N
Gbstr 26 Del rocket 4.5 06:10:06 10° NW 06:18:12 69° SW 06:25:52 10° SSE
Cosmos 1378 Rocket 4.2 06:17:11 20° SW 06:19:30 33° W 06:23:25 10° NNW
Cosmos 1459 Rocket 4.5 06:17:17 10° S 06:23:14 62° E 06:29:10 10° NNE
Meteor 2-9 Rocket 4.2 06:20:15 10° N 06:25:36 79° E 06:31:01 10° S
Cosmos 1975 3.3 06:22:14 10° NNW 06:25:54 36° W 06:29:32 10° SSW
Cosmos 2123 Rocket 4.3 06:20:37 10° NNW 06:26:19 40° W 06:31:59 10° SSW
USA 161 3.5 06:26:18 10° SE 06:28:10 25° ENE 06:30:16 10° NNE
OAO 3 Rocket 3.9 06:26:08 19° W 06:29:11 38° SSW 06:33:45 10° SE
Cosmos 1943 Rocket 2.1 06:23:40 10° SSW 06:29:18 72° WNW 06:34:58 10° NNE
USA 81 4.0 06:29:26 10° N 06:34:42 73° W 06:39:56 10° S
Cosmos 1992 Rocket 4.1 06:31:42 10° NNW 06:36:57 85° ENE 06:42:09 10° SSE
CZ-2C R/B 2.4 06:36:48 10° N 06:41:39 86° WNW 06:46:37 10° SSW
Cosmos 2082 Rocket 3.7 06:39:26 10° WNW 06:41:59 13° W 06:44:30 10° SW
Cosmos 407 Rocket 3.8 06:38:05 10° S 06:43:23 73° ESE 06:48:39 10° NNE
Cosmos 1743 3.8 06:41:00 10° NW 06:44:00 22° W 06:46:59 10° SW
SL-19 R/B 3.6 06:41:20 10° SSE 06:44:07 79° ENE 06:46:59 10° NNW
Cosmos 2369 Rocket 2.6 06:39:02 10° SW 06:44:17 42° WNW 06:49:35 10° N
deb Kosmos-1763 4.4 06:41:03 10° NNW 06:44:44 71° ENE 06:48:23 10° SSE
USA 116 4.2 06:41:37 10° SSE 06:45:39 77° ENE 06:50:15 10° N
ERBS 2.6 06:44:33 10° NW 06:47:57 70° NE 06:51:21 10° SE
USA 229 DEB 4.1 06:41:39 10° NW 06:48:38 49° WSW 06:55:44 10° S
USA 229 4.1 06:41:45 10° NW 06:48:43 49° WSW 06:55:50 10° S
NOSS 3-1 (A) 4.4 06:41:30 10° NNW 06:49:26 80° ENE 06:58:09 10° SSE
IDEFIX/ARIANE 42P 3.0 06:44:57 10° N 06:49:50 40° WNW 06:54:42 10° SW
Cosmos 1190 Rocket 4.1 06:45:58 10° SSW 06:51:13 85° ESE 06:56:33 10° NNE
NOSS 2-1 (C) 3.6 06:48:48 10° SSW 06:52:23 61° ESE 06:56:00 10° NE
COSMOS 2455 3.0 06:47:40 10° NW 06:53:27 50° WSW 06:59:12 10° S
NOSS 2-1 (D) 3.5 06:50:23 10° SSW 06:53:59 66° ESE 06:57:38 10° NE
PSLV R/B 4.1 06:53:42 10° NW 06:56:28 36° NNE 06:59:12 10° E
COSMOS 2487 2.8 06:53:16 10° NNW 06:56:35 40° WSW 06:59:51 10° S
Cosmos 2061 Rocket 4.1 06:53:55 10° S 07:00:21 81° W 07:06:45 10° N
